Voltar ao catálogo

SL-8 R/B

AtivoPO
NORAD 11170·ROCKET BODY·🇷🇺 Russia

Lançado Dec 26, 1978 de Plesetsk Cosmodrome

Loading…

Próximas Passagens (próximas 24 horas)

TLE

AtualizadoSource: Space-Track

Época: Sep 14, 2026, 13:23 UTC

1 11170U 78122B   26257.55777968  .00000051  00000-0  90712-4 0  9995
2 11170  82.9696 117.6660 0025748 156.0897 219.7253 13.22173390284689

Acompanhe SL-8 R/B em tempo real com AllMySat

Download on the App Store